| time (UTC) | temp F | wind direction | speed knots | gust knots | rain 1hr in | rain 24hr in | rain mn in | humidity % | barometer mb |
| 20260502194556 | 46 | 347 | 4.3 | 10.4 | 0.00 | 0.00 | 0.00 | 37 | 1016.8 |
| 20260502193049 | 47 | 268 | 1.7 | 7.8 | 0.00 | 0.00 | 0.00 | 41 | 1016.9 |
| 20260502191555 | 47 | 284 | 3.5 | 9.6 | 0.00 | 0.00 | 0.00 | 39 | 1017.2 |
| 20260502190047 | 46 | 241 | 2.6 | 13.0 | 0.00 | 0.00 | 0.00 | 42 | 1017.2 |
| 20260502184546 | 45 | 212 | 4.3 | 10.4 | 0.00 | 0.00 | 0.00 | 40 | 1017.3 |
| 20260502183045 | 47 | 283 | 6.1 | 9.6 | 0.00 | 0.00 | 0.00 | 42 | 1017.4 |
| 20260502181604 | 46 | 194 | 4.3 | 8.7 | 0.00 | 0.00 | 0.00 | 45 | 1017.5 |
| 20260502163038 | 48 | 337 | 2.6 | 7.8 | 0.00 | 0.00 | 0.00 | 47 | 1017.8 |
| 20260502161540 | 48 | 347 | 4.3 | 12.2 | 0.00 | 0.00 | 0.00 | 44 | 1017.9 |
| 20260502151529 | 45 | 295 | 3.5 | 10.4 | 0.00 | 0.00 | 0.00 | 49 | 1018.1 |
| 20260502123053 | 34 | 347 | 0.9 | 3.5 | 0.00 | 0.00 | 0.00 | 89 | 1018.8 |
| 20260502121549 | 31 | 262 | 0.9 | 2.6 | 0.00 | 0.00 | 0.00 | 93 | 1018.8 |
| 20260502114552 | 26 | 281 | 0.0 | 1.7 | 0.00 | 0.00 | 0.00 | 93 | 1019.0 |
| 20260502113046 | 25 | 281 | 0.0 | 0.9 | 0.00 | 0.00 | 0.00 | 92 | 1019.0 |
| 20260502111545 | 24 | 281 | 0.0 | 0.9 | 0.00 | 0.00 | 0.00 | 91 | 1018.9 |
| 20260502110045 | 24 | 281 | 0.0 | 0.9 | 0.00 | 0.00 | 0.00 | 91 | 1018.9 |
| 20260502104543 | 24 | 281 | 0.0 | 0.9 | 0.00 | 0.00 | 0.00 | 91 | 1018.8 |
| 20260502103041 | 24 | 281 | 0.0 | 0.9 | 0.00 | 0.00 | 0.00 | 91 | 1018.8 |
| 20260502101544 | 24 | 281 | 0.0 | 1.7 | 0.00 | 0.00 | 0.00 | 91 | 1018.8 |
| 20260502091532 | 25 | 283 | 0.0 | 1.7 | 0.00 | 0.00 | 0.00 | 90 | 1018.7 |
| 20260502071520 | 26 | 283 | 0.0 | 0.9 | 0.00 | 0.00 | 0.00 | 88 | 1018.4 |
| 20260502070018 | 26 | 283 | 0.0 | 0.9 | 0.00 | 0.00 | 0.00 | 88 | 1018.3 |
| 20260502064534 | 27 | 283 | 0.0 | 0.0 | 0.00 | 0.00 | 0.00 | 87 | 1018.3 |
| 20260502063017 | 27 | 347 | 0.0 | 0.0 | 0.00 | 0.00 | 0.00 | 87 | 1018.4 |
| 20260502061513 | 27 | 283 | 0.0 | 0.9 | 0.00 | 0.00 | 0.00 | 87 | 1018.4 |
| 20260502060011 | 27 | 283 | 0.0 | 0.0 | 0.00 | 0.00 | 0.00 | 86 | 1018.5 |
| 20260502054509 | 28 | 283 | 0.0 | 0.0 | 0.00 | 0.00 | 0.00 | 86 | 1018.6 |
| 20260502053007 | 28 | 283 | 0.0 | 0.0 | 0.00 | 0.00 | 0.00 | 85 | 1018.5 |
| 20260502051504 | 29 | 347 | 0.0 | 0.0 | 0.00 | 0.00 | 0.00 | 85 | 1018.5 |
| 20260502050005 | 29 | 347 | 0.0 | 0.0 | 0.00 | 0.00 | 0.00 | 83 | 1018.4 |
| 20260502044504 | 29 | 283 | 0.0 | 0.0 | 0.00 | 0.00 | 0.00 | 83 | 1018.4 |
| 20260502043100 | 30 | 283 | 0.0 | 0.0 | 0.00 | 0.00 | 0.00 | 83 | 1018.3 |
| 20260502041556 | 31 | 283 | 0.0 | 0.0 | 0.00 | 0.00 | 0.00 | 83 | 1018.3 |
| 20260502040105 | 31 | 283 | 0.0 | 0.0 | 0.00 | 0.00 | 0.00 | 82 | 1018.4 |
| 20260502034555 | 32 | 283 | 0.0 | 0.9 | 0.00 | 0.00 | 0.00 | 81 | 1018.4 |
| 20260502033051 | 32 | 283 | 0.0 | 0.0 | 0.00 | 0.00 | 0.00 | 80 | 1018.4 |
| 20260502031604 | 33 | 283 | 0.0 | 0.0 | 0.00 | 0.00 | 0.00 | 80 | 1018.4 |
| 20260502030052 | 34 | 283 | 0.0 | 0.0 | 0.00 | 0.00 | 0.00 | 80 | 1018.4 |
| 20260502024551 | 35 | 347 | 0.0 | 0.9 | 0.00 | 0.00 | 0.00 | 79 | 1018.4 |
| 20260502023054 | 35 | 283 | 0.0 | 2.6 | 0.00 | 0.00 | 0.00 | 79 | 1018.4 |
| 20260502021550 | 35 | 347 | 1.7 | 2.6 | 0.00 | 0.00 | 0.00 | 79 | 1018.5 |
| 20260502020106 | 36 | 291 | 0.9 | 4.3 | 0.00 | 0.00 | 0.00 | 77 | 1018.4 |
| 20260502014552 | 36 | 292 | 0.9 | 3.5 | 0.00 | 0.00 | 0.00 | 76 | 1018.3 |
| 20260502013046 | 37 | 273 | 0.9 | 5.2 | 0.00 | 0.00 | 0.00 | 75 | 1018.2 |
| 20260502011551 | 37 | 295 | 1.7 | 4.3 | 0.00 | 0.00 | 0.00 | 75 | 1018.1 |
| 20260502010043 | 37 | 276 | 1.7 | 7.0 | 0.00 | 0.00 | 0.00 | 75 | 1017.9 |
| 20260502004550 | 37 | 289 | 1.7 | 5.2 | 0.00 | 0.00 | 0.00 | 74 | 1017.8 |
| 20260502003045 | 38 | 300 | 2.6 | 4.3 | 0.00 | 0.00 | 0.00 | 74 | 1017.9 |
| 20260502001619 | 38 | 299 | 1.7 | 7.0 | 0.00 | 0.00 | 0.00 | 73 | 1017.7 |
| 20260502000040 | 38 | 296 | 1.7 | 4.3 | 0.00 | 0.00 | 0.00 | 71 | 1017.6 |
| 20260501234538 | 39 | 286 | 1.7 | 5.2 | 0.00 | 0.00 | 0.00 | 69 | 1017.5 |
| 20260501233038 | 39 | 311 | 1.7 | 4.3 | 0.00 | 0.00 | 0.00 | 70 | 1017.5 |
| 20260501231539 | 40 | 260 | 1.7 | 3.5 | 0.00 | 0.00 | 0.00 | 66 | 1017.4 |
| 20260501230037 | 40 | 277 | 2.6 | 5.2 | 0.00 | 0.00 | 0.00 | 67 | 1017.4 |
| 20260501224551 | 41 | 347 | 1.7 | 8.7 | 0.00 | 0.00 | 0.00 | 67 | 1017.4 |
| 20260501223036 | 41 | 289 | 1.7 | 8.7 | 0.00 | 0.00 | 0.00 | 66 | 1017.4 |
| 20260501221537 | 41 | 304 | 1.7 | 7.0 | 0.00 | 0.00 | 0.00 | 66 | 1017.2 |
| 20260501220037 | 41 | 293 | 1.7 | 8.7 | 0.00 | 0.00 | 0.00 | 65 | 1017.1 |
| 20260501214532 | 41 | 285 | 2.6 | 9.6 | 0.00 | 0.00 | 0.00 | 66 | 1017.0 |
| 20260501213032 | 41 | 310 | 1.7 | 10.4 | 0.00 | 0.00 | 0.00 | 64 | 1016.9 |
| 20260501211630 | 42 | 347 | 4.3 | 8.7 | 0.00 | 0.00 | 0.00 | 62 | 1016.8 |
| 20260501210033 | 43 | 292 | 1.7 | 8.7 | 0.00 | 0.00 | 0.00 | 60 | 1016.7 |
| 20260501204527 | 43 | 275 | 3.5 | 8.7 | 0.00 | 0.00 | 0.00 | 59 | 1016.6 |
| 20260501203032 | 42 | 272 | 2.6 | 5.2 | 0.00 | 0.00 | 0.00 | 58 | 1016.5 |
| 20260501201524 | 44 | 263 | 3.5 | 9.6 | 0.00 | 0.00 | 0.00 | 53 | 1016.6 |
| 20260501200024 | 45 | 276 | 0.9 | 4.3 | 0.00 | 0.00 | 0.00 | 51 | 1016.4 |